Погода в Златоусте

Россия / Новосибирская область     55°15′30″N   84°08′34″E
темп.,
°C
ветер,
м/с
пор.,
м/с
влажн.,
%
обл.,
%
осадки,
мм/ч
давл.,
гПа
погр.,
м
20 января, ср
ср2001:00−28з339989 0.0 102631
04:00−30з2310055 0.0 102819
07:00−32зюз1110029 0.0 103019
10:00−32зюз001000 0.0 103119
13:00−26вюв11910 0.0 1032110
16:00−26вюв23951 0.0 103187
19:00−29в339425 0.0 103124
22:00−28вюв3694100 0.0 1030128
21 января, чт
чт2101:00−26вюв4992100 0.0 1027193
04:00−23вюв5894100 0.1 1024211
07:00−21вюв4699100 0.6 1022166
10:00−19юв2498100 0.5 102096
13:00−15юз4794100 0.5 1020370
16:00−15юз4894100 0.1 1019359
19:00−19ююз3398100 0.1 101935
22:00−18ююз3397100 0.0 101757
22 января, пт
пт2201:00−17ююз2395100 0.0 101594
04:00−16ююз2595100 0.0 1013192
07:00−16зюз2595100 0.0 1012142
10:00−15з2496100 0.4 1012259
13:00−15зсз3494100 0.6 1012285
16:00−17сз2495100 0.0 1012248
19:00−19зсз2497100 0.0 1014101
22:00−23зсз339898 0.0 101631
23 января, сб
сб2301:00−26з339878 0.0 101940
04:00−28зюз349896 0.0 102250
07:00−26юз389698 0.0 1024207
10:00−24юз4997100 0.3 1027357
13:00−22юз5993100 0.3 1028444
16:00−21юз5893100 0.1 1029501
19:00−23ююз3796100 0.1 1030248
22:00−21юз2698100 0.1 1031207
24 января, вс
вс2401:00−21ююз2298100 0.3 103041
04:00−21ююз1199100 0.1 103020
07:00−21ююз1199100 0.3 103020
10:00−21з2298100 0.1 103249
13:00−20з3595100 0.3 1033377
16:00−22з4795100 0.1 1034488
19:00−25з4896100 0.2 1037374
22:00−30з4798100 0.0 1039167